Location: Antin
(43.3330°N, 0.2804°E)
Time: 22:49:43
(UTC+00:00)

ATLAS 5 CENTAUR R/B - Pass Details

Date: 16 October 2021
Orbit: 497 x 1159 km, 63.4° (Epoch: 25 November)

Event Time Altitude Azimuth Distance (km) Brightness Sun altitude
Rises 18:38:24 0° 206° (SSW) 2,574 5.1 -16.1°
Reaches altitude 10° 18:40:29 10° 203° (SSW) 1,712 4.1 -16.5°
Maximum altitude 18:44:12 62° 123° (ESE) 604 1.2 -17.1°
Enters shadow 18:46:05 29° 52° (NE) 1,026 2.3 -17.5°
